PD3EM Weather Reports


time (UTC)temp
C
wind
direction
speed
KPH
gust
KPH
rain 1hr
cm
rain 24hr
cm
rain mn
cm
humidity
%
barometer
mb
20260503020536 13 217 4.8 6.4 0.00 0.86 0.05 94 1013.7
20260503015615 13 165 1.6 3.2 0.00 0.86 0.05 94 1013.5
20260503014533 13 173 3.2 4.8 0.00 0.86 0.05 94 1013.3
20260503013532 13 197 3.2 4.8 0.00 0.86 0.05 94 1013.4
20260503012531 13 108 1.6 6.4 0.00 0.86 0.05 94 1013.4
20260503011530 13 176 4.8 8.0 0.00 0.86 0.05 94 1013.3
20260503010528 13 189 3.2 6.4 0.00 0.86 0.05 94 1013.5
20260503005607 13 0.0 1.6 0.00 0.86 0.05 94 1013.6
20260503004526 13 0.0 1.6 0.00 0.86 0.05 93 1013.4
20260503003525 13 0.0 1.6 0.00 0.86 0.05 93 1013.5
20260503002524 13 0.0 0.0 0.00 0.86 0.05 93 1013.7
20260503001602 13 0.0 3.2 0.00 0.86 0.05 93 1013.5
20260503000521 13 151 1.6 3.2 0.00 0.86 0.05 93 1013.8
20260502235519 13 0.0 1.6 0.00 0.86 0.05 93 1014.0
20260502234518 13 116 3.2 3.2 0.00 0.86 0.05 93 1014.0
20260502233517 13 0.0 0.0 0.00 0.86 0.05 92 1014.4
20260502232515 13 181 3.2 3.2 0.00 0.86 0.05 92 1014.3
20260502231514 13 0.0 1.6 0.03 0.86 0.05 92 1014.3
20260502230513 13 0.0 1.6 0.00 0.84 0.03 92 1014.1
20260502225511 13 129 3.2 4.8 0.00 0.84 0.00 92 1014.6
20260502224510 13 129 6.4 8.0 0.03 0.84 0.00 91 1014.9
20260502223509 13 0.0 3.2 0.08 0.84 0.00 91 1014.7
20260502222527 13 96 4.8 8.0 0.15 0.84 0.00 90 1014.8
20260502221547 13 0.0 3.2 0.28 0.84 0.00 90 1014.6
20260502220505 14 0.0 1.6 0.43 0.84 0.00 89 1014.7
20260502215524 14 24 1.6 6.4 0.81 0.84 0.86 88 1014.8
20260502214502 14 0.0 0.0 0.84 0.84 0.84 87 1015.1
20260502213601 14 0.0 1.6 0.79 0.79 0.79 86 1015.2
20260502212600 14 329 4.8 4.8 0.71 0.71 0.71 84 1015.9
20260502211559 15 41 3.2 6.4 0.56 0.56 0.56 82 1016.3
20260502210558 15 56 6.4 8.0 0.41 0.41 0.41 79 1016.5
20260502205556 17 26 8.0 14.5 0.03 0.03 0.03 73 1016.2
20260502204635 17 250 4.8 4.8 0.00 0.00 0.00 69 1015.5
20260502203553 16 0.0 0.0 0.00 0.00 0.00 69 1014.8
20260502202552 16 24 1.6 1.6 0.00 0.00 0.00 68 1015.0
20260502201551 16 0.0 3.2 0.00 0.00 0.00 68 1014.9
20260502200550 17 0.0 1.6 0.00 0.00 0.00 68 1015.1
20260502195548 17 0.0 1.6 0.00 0.00 0.00 68 1015.3
20260502194627 17 0.0 3.2 0.00 0.00 0.00 67 1015.4
20260502193546 17 341 3.2 3.2 0.00 0.00 0.00 67 1015.3
20260502192544 17 0.0 1.6 0.00 0.00 0.00 66 1015.5
20260502191543 17 324 3.2 3.2 0.00 0.00 0.00 66 1015.4
20260502190542 17 0.0 3.2 0.00 0.00 0.00 66 1015.6
20260502185540 18 327 3.2 4.8 0.00 0.00 0.00 66 1015.5
20260502184539 18 334 1.6 1.6 0.00 0.00 0.00 66 1015.7
20260502183539 18 0.0 1.6 0.00 0.00 0.00 65 1015.8
20260502182537 19 0.0 3.2 0.00 0.00 0.00 64 1015.5
20260502181536 19 281 3.2 3.2 0.00 0.00 0.00 63 1015.8
20260502180534 20 0.0 1.6 0.00 0.00 0.00 63 1015.7
20260502163523 22 314 6.4 9.7 0.00 0.00 0.00 57 1016.4
20260502162602 22 314 6.4 6.4 0.00 0.00 0.00 58 1016.6
20260502161521 22 345 6.4 6.4 0.00 0.00 0.00 58 1016.7
20260502160519 22 299 6.4 6.4 0.00 0.00 0.00 58 1016.6
20260502151513 22 286 6.4 6.4 0.00 0.00 0.00 59 1017.1
20260502150512 22 326 1.6 3.2 0.00 0.00 0.00 60 1017.6
20260502130557 24 0.0 4.8 0.00 0.00 0.00 59 1018.9
20260502123553 25 356 1.6 3.2 0.00 0.00 0.00 58 1018.9
20260502122552 25 141 8.0 9.7 0.00 0.00 0.00 59 1019.1
20260502121550 25 33 4.8 4.8 0.00 0.00 0.00 59 1019.3
20260502120549 25 77 1.6 3.2 0.00 0.00 0.00 59 1019.2
20260502115548 25 147 8.0 14.5 0.00 0.00 0.00 59 1019.4
20260502114627 24 110 3.2 6.4 0.00 0.00 0.00 61 1019.5
20260502113546 24 170 8.0 8.0 0.00 0.00 0.00 60 1019.5
20260502112544 24 185 1.6 6.4 0.00 0.00 0.00 59 1019.6
20260502111543 23 8 6.4 6.4 0.00 0.00 0.00 61 1019.4
20260502110542 23 149 4.8 9.7 0.00 0.00 0.00 60 1019.8
20260502105540 23 172 6.4 8.0 0.00 0.00 0.00 61 1019.7
20260502104539 23 165 8.0 8.0 0.00 0.00 0.00 61 1019.8
20260502103538 23 353 4.8 4.8 0.00 0.00 0.00 61 1019.9
20260502102537 23 152 1.6 4.8 0.00 0.00 0.00 62 1019.9
20260502101536 22 7 1.6 4.8 0.00 0.00 0.00 63 1020.1
20260502100534 22 176 9.7 9.7 0.00 0.00 0.00 65 1020.0
20260502091528 20 102 3.2 3.2 0.00 0.00 0.00 70 1020.5
20260502090527 19 17 4.8 4.8 0.00 0.00 0.00 69 1020.5
20260502071514 14 163 4.8 4.8 0.00 0.00 0.00 71 1019.9
20260502070533 13 0.0 3.2 0.00 0.00 0.00 71 1020.0
20260502065511 13 0.0 3.2 0.00 0.00 0.00 71 1020.0
20260502064510 13 0.0 3.2 0.00 0.00 0.00 70 1019.9
20260502063509 13 0.0 3.2 0.00 0.00 0.00 69 1019.9
20260502062508 13 0.0 1.6 0.00 0.00 0.00 69 1020.2
20260502061507 13 172 3.2 4.8 0.00 0.00 0.00 68 1020.5
20260502060505 12 137 3.2 4.8 0.00 0.00 0.00 68 1020.2
20260502055504 12 130 3.2 3.2 0.00 0.00 0.00 69 1020.4
20260502054503 12 0.0 0.0 0.00 0.00 0.00 69 1020.2
20260502053542 12 181 3.2 4.8 0.00 0.00 0.00 69 1020.0
20260502052400 12 97 3.2 3.2 0.00 0.00 0.00 69 1020.0
20260502051359 11 0.0 1.6 0.00 0.00 0.00 69 1020.0
20260502050458 11 207 3.2 4.8 0.00 0.00 0.00 69 1020.0
20260502045437 11 210 1.6 4.8 0.00 0.00 0.00 68 1020.2
20260502044356 12 66 3.2 3.2 0.00 0.00 0.00 67 1019.9
20260502043354 11 144 4.8 6.4 0.00 0.00 0.00 66 1020.0
20260502042353 11 67 3.2 4.8 0.00 0.00 0.00 66 1019.6
20260502041352 11 357 3.2 4.8 0.00 0.00 0.00 66 1019.6
20260502040350 11 17 3.2 3.2 0.00 0.00 0.00 65 1019.9
20260502035349 11 210 1.6 3.2 0.00 0.00 0.00 64 1019.7
20260502034348 11 121 3.2 3.2 0.00 0.00 0.00 64 1019.8
20260502033347 11 220 4.8 4.8 0.00 0.00 0.00 63 1019.9
20260502032345 11 140 1.6 3.2 0.00 0.00 0.00 63 1020.1
20260502031345 11 114 3.2 6.4 0.00 0.00 0.00 64 1020.3
20260502030343 11 79 3.2 8.0 0.00 0.00 0.00 63 1020.1
20260502025342 11 47 1.6 3.2 0.00 0.00 0.00 62 1020.2
20260502024341 11 54 3.2 3.2 0.00 0.00 0.00 61 1020.2
20260502023420 12 22 3.2 4.8 0.00 0.00 0.00 61 1020.3
20260502022419 12 182 3.2 3.2 0.00 0.00 0.00 60 1020.5